Regional Weather Roundup
Issued by NWS

Home | Current Version | Previous Version | Graphics & Text | Print | Product List | Glossary Off
Versions: 1 2 3 4 5 6 7 8 9 10 11 12 13 14 15 16 17 18 19 20 21 22 23 24 25 26 27 28 29 30 31 32 33 34 35 36 37 38 39 40 41 42 43 44 45 46 47 48 49 50

000
ASUS43 KLMK 300810
RWRKY
KENTUCKY REGIONAL WEATHER ROUNDUP
NATIONAL WEATHER SERVICE LOUISVILLE KY
400 AM EDT SUN AUG 30 2015

NOTE "FAIR" INDICATES FEW OR NO CLOUDS BELOW 12,000 FEET
WITH NO SIGNIFICANT WEATHER AND/OR OBSTRUCTIONS TO VISIBILITY.

KYZ001>023-026-027-061>063-070>075-300900-
WESTERN AND SOUTH CENTRAL KENTUCKY

CITY           SKY/WX    TMP DP  RH WIND       PRES   REMARKS
PADUCAH        LGT RAIN  75  68  78 SW3       30.03S
HENDERSON      CLOUDY    72  68  88 S5        30.02F
OWENSBORO      CLOUDY    72  69  90 S5        30.05S
HOPKINSVILLE   MOCLDY    72  67  86 SE6       30.06S
BOWLING GREEN  PTCLDY    70  66  87 S5        30.09S
GLASGOW        PTCLDY    67  67 100 CALM      30.10F
$$

KYZ024-025-028>034-038-045-046-053-300900-
NORTH CENTRAL KENTUCKY

CITY           SKY/WX    TMP DP  RH WIND       PRES   REMARKS
LOUISVILLE/SDF MOCLDY    74  66  76 S9        30.06S
LOUISVILLE/LOU PTCLDY    72  67  84 S3        30.07S
FORT KNOX      PTCLDY    69  66  92 S7        30.06S
$$

KYZ035>037-039>044-047>052-055>060-089>105-300900-
NORTHEAST KENTUCKY

CITY           SKY/WX    TMP DP  RH WIND       PRES   REMARKS
LEXINGTON      PTCLDY    68  65  90 SW5       30.11S
COVINGTON      MOCLDY    66  64  93 S5        30.08S
FRANKFORT      PTCLDY    70  66  87 S6        30.09S
$$

KYZ054-064>069-076>088-106>120-300900-
SOUTHEAST KENTUCKY

CITY           SKY/WX    TMP DP  RH WIND       PRES   REMARKS
JACKSON        CLEAR     67  63  87 CALM      30.14R
LONDON         CLEAR     66  62  87 SE3       30.13F FOG
SOMERSET       PTCLDY    66  66 100 CALM      30.13S FOG
MIDDLESBORO    CLEAR     63  62  99 CALM      30.15S
MONTICELLO     PTSUNNY   66  66 100 CALM      30.14F FOG
$$



USA.gov is the U.S. government's official web portal to all federal, state and local government web resources and services.